SWA192 KDCA-KMDW

Flight info

Callsign SWA192
Flight time 1h 36m
Altitude 38000
Route WYNGS5 RAMAY Q72 HACKS J149 FWA PANGG7
Aircraft B38M/M-SDE1FGHILORVWXY/HB1

Departure

Time 2026-05-04 16:18
Airport Ronald Reagan Washington National Airport (KDCA)

Arrival

Time 2026-05-04 17:54
Airport Chicago Midway International Airport (KMDW)
Time Latitude Longitude Altitude Speed Heading
2026-05-04 15:47 38.84645 -77.04202 27 ft 0 kts 333°
2026-05-04 16:05 38.84644 -77.04201 27 ft 2 kts 333°
2026-05-04 16:06 38.84598 -77.04171 27 ft 4 kts 319°
2026-05-04 16:07 38.84586 -77.04134 27 ft 4 kts 259°
2026-05-04 16:07 38.84637 -77.04111 27 ft 4 kts 156°
2026-05-04 16:08 38.84658 -77.04123 27 ft 1 kts 156°
2026-05-04 16:08 38.84679 -77.04135 27 ft 0 kts 156°
2026-05-04 16:12 38.84618 -77.04096 27 ft 6 kts 131°
2026-05-04 16:13 38.84674 -77.04013 27 ft 9 kts 26°
2026-05-04 16:13 38.84779 -77.03887 26 ft 12 kts 21°
2026-05-04 16:14 38.84983 -77.03900 28 ft 17 kts 355°
2026-05-04 16:14 38.85248 -77.03925 27 ft 21 kts 355°
2026-05-04 16:15 38.85701 -77.03972 28 ft 22 kts 355°
2026-05-04 16:16 38.85950 -77.03977 27 ft 15 kts 17°
2026-05-04 16:16 38.86049 -77.03869 30 ft 7 kts 170°
2026-05-04 16:17 38.85137 -77.03775 27 ft 141 kts 175°
2026-05-04 16:18 38.81387 -77.03473 2235 ft 207 kts 182°
2026-05-04 16:18 38.79854 -77.03481 2868 ft 224 kts 181°
2026-05-04 16:19 38.75292 -77.05140 5348 ft 252 kts 241°
2026-05-04 16:19 38.74585 -77.09447 7400 ft 252 kts 266°
2026-05-04 16:20 38.74233 -77.16269 10257 ft 265 kts 267°
2026-05-04 16:20 38.73933 -77.21249 11294 ft 299 kts 267°
2026-05-04 16:21 38.75638 -77.28889 13764 ft 313 kts 299°
2026-05-04 16:22 38.77900 -77.33728 15323 ft 320 kts 300°
2026-05-04 16:22 38.81446 -77.41164 17639 ft 332 kts 301°
2026-05-04 16:23 38.85127 -77.48860 19601 ft 342 kts 301°
2026-05-04 16:24 38.90188 -77.59465 22050 ft 355 kts 301°
2026-05-04 16:25 38.92786 -77.64923 23220 ft 361 kts 302°
2026-05-04 16:26 38.94572 -77.77709 25228 ft 375 kts 276°
2026-05-04 16:26 38.94953 -77.87845 26630 ft 382 kts 275°
2026-05-04 16:27 38.95150 -77.93545 27359 ft 386 kts 276°
2026-05-04 16:28 38.95536 -78.05087 28830 ft 393 kts 275°
2026-05-04 16:28 38.95882 -78.15699 30071 ft 399 kts 275°
2026-05-04 16:29 38.96589 -78.28802 31371 ft 403 kts 277°
2026-05-04 16:30 38.97283 -78.39611 32450 ft 406 kts 277°
2026-05-04 16:31 38.97737 -78.46813 33426 ft 401 kts 277°
2026-05-04 16:31 38.98399 -78.57442 34582 ft 397 kts 277°
2026-05-04 16:32 38.99052 -78.68078 35405 ft 399 kts 276°
2026-05-04 16:33 38.99484 -78.75206 35978 ft 400 kts 276°
2026-05-04 16:33 38.99913 -78.82349 36474 ft 401 kts 276°
2026-05-04 16:34 39.00336 -78.89502 37011 ft 402 kts 275°
2026-05-04 16:34 39.00548 -78.93089 37241 ft 403 kts 275°
2026-05-04 16:35 39.01176 -79.03850 37944 ft 405 kts 275°
2026-05-04 16:35 39.01797 -79.14636 37985 ft 400 kts 275°
2026-05-04 16:36 39.02492 -79.25342 37988 ft 401 kts 276°
2026-05-04 16:37 39.03188 -79.36057 37989 ft 401 kts 276°
2026-05-04 16:38 39.04102 -79.50347 37993 ft 401 kts 276°
2026-05-04 16:39 39.05220 -79.68238 38009 ft 402 kts 275°
2026-05-04 16:40 39.06092 -79.82506 37994 ft 402 kts 276°
2026-05-04 16:41 39.07165 -80.00461 38000 ft 403 kts 275°
2026-05-04 16:43 39.08210 -80.18424 37970 ft 403 kts 275°
2026-05-04 16:43 39.08825 -80.29219 37974 ft 403 kts 275°
2026-05-04 16:45 39.09988 -80.50815 37967 ft 403 kts 275°
2026-05-04 16:46 39.10929 -80.68838 37958 ft 404 kts 275°
2026-05-04 16:47 39.11660 -80.83206 37963 ft 404 kts 275°
2026-05-04 16:48 39.12376 -80.97645 37964 ft 405 kts 275°
2026-05-04 16:49 39.14153 -81.11769 37981 ft 401 kts 296°
2026-05-04 16:50 39.19258 -81.24648 37959 ft 404 kts 297°
2026-05-04 16:51 39.23191 -81.34274 37960 ft 405 kts 297°
2026-05-04 16:52 39.28443 -81.47148 37953 ft 405 kts 297°
2026-05-04 16:53 39.32353 -81.56766 37958 ft 405 kts 297°
2026-05-04 16:54 39.37581 -81.69671 37951 ft 405 kts 297°
2026-05-04 16:55 39.45390 -81.89060 37944 ft 405 kts 297°
2026-05-04 16:56 39.51873 -82.05252 37934 ft 405 kts 297°
2026-05-04 16:57 39.55753 -82.14983 37924 ft 405 kts 297°
2026-05-04 16:58 39.60911 -82.27970 37916 ft 405 kts 297°
2026-05-04 17:00 39.68604 -82.47443 37911 ft 406 kts 297°
2026-05-04 17:01 39.75010 -82.63756 37889 ft 406 kts 297°
2026-05-04 17:02 39.80122 -82.76838 37888 ft 406 kts 297°
2026-05-04 17:03 39.83928 -82.86615 37881 ft 402 kts 297°
2026-05-04 17:03 39.87713 -82.96368 37887 ft 402 kts 297°
2026-05-04 17:04 39.92744 -83.09380 37878 ft 402 kts 297°
2026-05-04 17:05 39.97762 -83.22418 37876 ft 402 kts 297°
2026-05-04 17:06 40.01509 -83.32193 37870 ft 402 kts 297°
2026-05-04 17:07 40.04829 -83.40878 37863 ft 402 kts 297°
2026-05-04 17:07 40.07739 -83.48511 37889 ft 401 kts 296°
2026-05-04 17:08 40.11446 -83.58267 37852 ft 399 kts 296°
2026-05-04 17:09 40.13895 -83.64728 37843 ft 399 kts 296°
2026-05-04 17:09 40.16352 -83.71226 37845 ft 399 kts 296°
2026-05-04 17:10 40.22487 -83.87511 37847 ft 399 kts 296°
2026-05-04 17:11 40.24935 -83.94034 37841 ft 399 kts 296°
2026-05-04 17:12 40.28632 -84.03802 37836 ft 399 kts 301°
2026-05-04 17:13 40.37205 -84.18038 37805 ft 398 kts 307°
2026-05-04 17:14 40.44145 -84.29395 37798 ft 399 kts 307°
2026-05-04 17:15 40.49350 -84.37940 37801 ft 400 kts 307°
2026-05-04 17:16 40.56290 -84.49368 37798 ft 400 kts 307°
2026-05-04 17:17 40.63195 -84.60782 37794 ft 400 kts 307°
2026-05-04 17:18 40.70115 -84.72262 37791 ft 401 kts 307°
2026-05-04 17:19 40.77038 -84.83791 37783 ft 401 kts 307°
2026-05-04 17:20 40.83938 -84.95325 37769 ft 399 kts 306°
2026-05-04 17:20 40.89100 -85.03982 37770 ft 400 kts 306°
2026-05-04 17:21 40.92536 -85.09756 36929 ft 400 kts 306°
2026-05-04 17:21 40.95982 -85.15555 35559 ft 401 kts 306°
2026-05-04 17:22 40.97835 -85.18315 34818 ft 405 kts 317°
2026-05-04 17:22 41.00189 -85.20423 34048 ft 412 kts 325°
2026-05-04 17:23 41.06701 -85.25700 32233 ft 411 kts 326°
2026-05-04 17:23 41.09172 -85.27661 31710 ft 415 kts 326°
2026-05-04 17:23 41.14151 -85.31595 30607 ft 416 kts 326°
2026-05-04 17:24 41.16625 -85.33551 30040 ft 413 kts 327°
2026-05-04 17:24 41.23955 -85.39353 28247 ft 404 kts 326°
2026-05-04 17:25 41.26358 -85.41259 27741 ft 400 kts 326°
2026-05-04 17:25 41.31104 -85.45026 26644 ft 394 kts 326°
2026-05-04 17:26 41.35781 -85.48745 25603 ft 390 kts 326°
2026-05-04 17:26 41.42713 -85.54268 24075 ft 385 kts 326°
2026-05-04 17:27 41.47289 -85.57925 22995 ft 383 kts 325°
2026-05-04 17:27 41.50725 -85.62992 21864 ft 367 kts 290°
2026-05-04 17:28 41.51582 -85.69533 21003 ft 355 kts 274°
2026-05-04 17:29 41.51947 -85.79284 19584 ft 350 kts 271°
2026-05-04 17:29 41.52159 -85.88836 18494 ft 337 kts 271°
2026-05-04 17:30 41.52335 -85.98128 17117 ft 331 kts 270°
2026-05-04 17:31 41.52447 -86.04230 16234 ft 327 kts 270°
2026-05-04 17:31 41.52460 -86.13265 14857 ft 322 kts 269°
2026-05-04 17:32 41.52437 -86.19196 14016 ft 318 kts 268°
2026-05-04 17:33 41.52400 -86.28000 12541 ft 308 kts 268°
2026-05-04 17:33 41.52387 -86.30804 12188 ft 298 kts 268°
2026-05-04 17:34 41.52345 -86.38976 11114 ft 290 kts 268°
2026-05-04 17:34 41.52328 -86.41671 10917 ft 291 kts 268°
2026-05-04 17:35 41.52275 -86.49410 10466 ft 264 kts 268°
2026-05-04 17:35 41.52239 -86.54183 10203 ft 256 kts 268°
2026-05-04 17:35 41.52221 -86.56524 10086 ft 255 kts 268°
2026-05-04 17:36 41.52203 -86.58896 9929 ft 256 kts 268°
2026-05-04 17:36 41.52183 -86.61260 9746 ft 254 kts 268°
2026-05-04 17:36 41.52164 -86.63614 9577 ft 254 kts 268°
2026-05-04 17:36 41.52145 -86.65962 9392 ft 252 kts 268°
2026-05-04 17:37 41.52124 -86.68294 9214 ft 251 kts 268°
2026-05-04 17:37 41.52104 -86.70625 9054 ft 252 kts 268°
2026-05-04 17:37 41.52083 -86.72962 8883 ft 252 kts 268°
2026-05-04 17:37 41.52061 -86.75299 8718 ft 252 kts 268°
2026-05-04 17:38 41.52039 -86.77631 8548 ft 251 kts 268°
2026-05-04 17:38 41.52016 -86.79958 8390 ft 250 kts 268°
2026-05-04 17:38 41.51994 -86.82279 8218 ft 250 kts 268°
2026-05-04 17:38 41.51970 -86.84602 8052 ft 250 kts 268°
2026-05-04 17:39 41.51923 -86.89237 7722 ft 248 kts 267°
2026-05-04 17:39 41.51898 -86.91543 7552 ft 249 kts 268°
2026-05-04 17:39 41.51873 -86.93852 7386 ft 249 kts 267°
2026-05-04 17:40 41.51847 -86.96155 7232 ft 249 kts 267°
2026-05-04 17:40 41.51821 -86.98463 7084 ft 249 kts 267°
2026-05-04 17:40 41.51793 -87.00767 6937 ft 248 kts 267°
2026-05-04 17:40 41.51766 -87.03059 6765 ft 247 kts 267°
2026-05-04 17:41 41.51739 -87.05357 6596 ft 247 kts 267°
2026-05-04 17:41 41.51711 -87.07643 6434 ft 247 kts 267°
2026-05-04 17:41 41.51683 -87.09937 6269 ft 248 kts 268°
2026-05-04 17:41 41.51654 -87.12238 6119 ft 247 kts 268°
2026-05-04 17:42 41.51963 -87.14477 5970 ft 251 kts 291°
2026-05-04 17:42 41.53053 -87.16332 5868 ft 262 kts 317°
2026-05-04 17:42 41.54680 -87.17434 5740 ft 270 kts 334°
2026-05-04 17:42 41.56452 -87.18305 5620 ft 272 kts 333°
2026-05-04 17:43 41.58221 -87.19190 5455 ft 272 kts 333°
2026-05-04 17:43 41.59993 -87.20075 5344 ft 270 kts 333°
2026-05-04 17:43 41.61732 -87.20945 5209 ft 262 kts 333°
2026-05-04 17:43 41.63413 -87.21789 5096 ft 254 kts 333°
2026-05-04 17:44 41.65042 -87.22604 4964 ft 246 kts 332°
2026-05-04 17:44 41.66606 -87.23385 4892 ft 234 kts 332°
2026-05-04 17:44 41.68104 -87.24137 4762 ft 226 kts 332°
2026-05-04 17:44 41.69548 -87.24862 4642 ft 218 kts 332°
2026-05-04 17:45 41.70982 -87.25582 4542 ft 223 kts 332°
2026-05-04 17:45 41.72441 -87.26316 4422 ft 224 kts 332°
2026-05-04 17:45 41.73903 -87.27050 4317 ft 225 kts 332°
2026-05-04 17:45 41.75366 -87.27793 4235 ft 224 kts 330°
2026-05-04 17:46 41.76777 -87.28658 4121 ft 223 kts 328°
2026-05-04 17:46 41.78182 -87.29533 3986 ft 223 kts 328°
2026-05-04 17:46 41.79589 -87.30405 3890 ft 223 kts 328°
2026-05-04 17:46 41.80998 -87.31274 3775 ft 224 kts 328°
2026-05-04 17:47 41.82413 -87.32146 3671 ft 224 kts 328°
2026-05-04 17:47 41.83796 -87.33079 3546 ft 218 kts 316°
2026-05-04 17:47 41.84649 -87.34626 3407 ft 203 kts 283°
2026-05-04 17:47 41.84843 -87.36469 3339 ft 199 kts 269°
2026-05-04 17:48 41.84906 -87.38325 3266 ft 199 kts 268°
2026-05-04 17:48 41.84948 -87.40154 3183 ft 199 kts 266°
2026-05-04 17:48 41.84974 -87.42015 3076 ft 200 kts 266°
2026-05-04 17:48 41.84992 -87.43897 3016 ft 196 kts 266°
2026-05-04 17:49 41.85003 -87.45659 3021 ft 184 kts 266°
2026-05-04 17:49 41.85010 -87.47347 3006 ft 183 kts 266°
2026-05-04 17:49 41.85013 -87.49049 2993 ft 182 kts 266°
2026-05-04 17:49 41.85014 -87.50742 2982 ft 181 kts 266°
2026-05-04 17:50 41.85014 -87.52428 2989 ft 181 kts 265°
2026-05-04 17:50 41.85013 -87.54113 2999 ft 181 kts 265°
2026-05-04 17:50 41.84970 -87.55791 2995 ft 180 kts 262°
2026-05-04 17:50 41.84899 -87.57465 3000 ft 180 kts 263°
2026-05-04 17:51 41.84829 -87.59135 2985 ft 180 kts 263°
2026-05-04 17:51 41.84758 -87.60807 2981 ft 180 kts 262°
2026-05-04 17:51 41.84676 -87.62459 2809 ft 173 kts 262°
2026-05-04 17:51 41.84600 -87.63988 2626 ft 159 kts 260°
2026-05-04 17:52 41.84307 -87.65373 2348 ft 151 kts 245°
2026-05-04 17:52 41.83944 -87.66609 2177 ft 135 kts 245°
2026-05-04 17:52 41.83591 -87.67733 2038 ft 128 kts 244°
2026-05-04 17:52 41.83246 -87.68824 1832 ft 126 kts 239°
2026-05-04 17:53 41.82768 -87.69809 1598 ft 127 kts 230°
2026-05-04 17:53 41.82165 -87.70643 1444 ft 123 kts 221°
2026-05-04 17:53 41.81499 -87.71410 1370 ft 127 kts 221°
2026-05-04 17:53 41.80854 -87.72217 1185 ft 127 kts 223°
2026-05-04 17:54 41.80202 -87.73049 1000 ft 127 kts 222°
2026-05-04 17:54 41.79587 -87.73815 806 ft 113 kts 217°
2026-05-04 17:54 41.79042 -87.74507 657 ft 102 kts 220°
2026-05-04 17:54 41.78643 -87.75009 632 ft 44 kts 223°
2026-05-04 17:55 41.78497 -87.75195 635 ft 39 kts 223°
2026-05-04 17:55 41.78303 -87.75441 636 ft 28 kts 224°
2026-05-04 17:55 41.78210 -87.75489 640 ft 7 kts 150°
2026-05-04 17:55 41.78194 -87.75420 632 ft 10 kts 91°
2026-05-04 17:56 41.78212 -87.75345 637 ft 6 kts 33°
2026-05-04 17:56 41.78252 -87.75306 635 ft 10 kts 42°
2026-05-04 17:56 41.78323 -87.75217 638 ft 16 kts 43°
2026-05-04 17:56 41.78409 -87.75103 636 ft 19 kts 45°
2026-05-04 17:57 41.78498 -87.74993 632 ft 17 kts 41°
2026-05-04 17:57 41.78570 -87.74902 633 ft 12 kts 45°
2026-05-04 17:57 41.78625 -87.74830 631 ft 11 kts 44°
2026-05-04 17:57 41.78612 -87.74763 637 ft 9 kts 150°
2026-05-04 17:58 41.78552 -87.74708 635 ft 12 kts 137°
2026-05-04 17:58 41.78491 -87.74621 631 ft 14 kts 135°
2026-05-04 17:58 41.78473 -87.74590 639 ft 4 kts 112°
2026-05-04 17:58 41.78486 -87.74544 631 ft 7 kts 47°
2026-05-04 17:59 41.78525 -87.74487 637 ft 10 kts 45°
2026-05-04 17:59 41.78581 -87.74418 633 ft 12 kts 43°
2026-05-04 17:59 41.78693 -87.74304 637 ft 6 kts
2026-05-04 18:00 41.78714 -87.74263 638 ft 2 kts 85°
2026-05-04 18:00 41.78715 -87.74246 631 ft 1 kts 90°
2026-05-04 18:00 41.78715 -87.74240 631 ft 0 kts 90°